Location: Alpha Ridge Park
(39.3209°N, 76.9128°W)
Time: 16:29:53
(UTC-04:00)

BEESAT - Pass Details

Date: 29 June 2022
Orbit: 700 x 706 km, 98.6° (Epoch: 16 August)

Event Time Altitude Azimuth Distance (km) Brightness Sun altitude
Rises 23:03:24 0° 351° (N) 3,102 ? -20.7°
Reaches altitude 10° 23:07:07 10° 321° (NW) 2,179 ? -21.1°
Maximum altitude 23:08:50 12° 299° (WNW) 2,047 ? -21.3°
Drops below altitude 10° 23:10:34 10° 278° (W) 2,176 ? -21.4°
Sets 23:14:17 0° 247° (WSW) 3,090 ? -21.8°
